Home > Weather > São Luis > Past weeks

Flag for Brazil Past Weather in São Luis, Maranhão, Brazil — Yesterday and Last 2 Weeks

Now
79 °F

Partly cloudy.


Feels Like: 82 °F
Forecast: 78 / 88 °F
Wind: 3 mph from Northeast

Location: Sao Luiz Aeroporto

Current Time: Jun 29, 2016 at 2:33:54 AM

Latest Report: Jun 29, 2016 at 2:00 AM


Visibility: N/A

Pressure: 29.95 "Hg

Humidity: 84%

Dew Point: 73 °F

Location of São LuisLocation

Past Weather in São Luis — Graph

°F

São Luis Temperature Yesterday

Maximum temperature yesterday: 90 °F (at 5:00 PM)
Minimum temperature yesterday: 79 °F (at 12:00 AM)
Average temperature yesterday: 82 °F

High & Low Weather Summary for the Past Weeks

 TemperatureHumidityPressure
High90 °F (Jun 14, 2:00 PM)100% (Jun 24, 2:00 AM)30.07 "Hg (Jun 24, 2:00 AM)
Low41 °F (Jun 24, 2:00 AM)46% (Jun 28, 5:00 PM)29.86 "Hg (Jun 20, 3:00 PM)
Average81 °F75%29.95 "Hg
* Reported Jun 14 1:00 AM — Jun 29 1:00 AM, São Luis, Weather by CustomWeather, © 2016

Note: Actual official high and low records may vary slightly from our data, if they occured in-between our weather recording intervals... More about our weather records

Advertising

São Luis Weather History for the Previous 24 Hours

Scroll right to see more
 ConditionsComfort  
Time TempWeatherWind HumidityBarometerVisibility
1:00 AM
Wed, Jun 29
79 °FPassing clouds.6 mph84%29.95 "HgN/A
12:00 AM79 °FPassing clouds.8 mph84%29.98 "HgN/A
11:00 PM
Tue, Jun 28
81 °FPassing clouds.7 mph79%29.98 "HgN/A
10:00 PM79 °FClear.7 mph84%29.98 "Hg10 mi
9:00 PM79 °FClear.6 mph79%29.95 "Hg10 mi
8:00 PM82 °FClear.6 mph70%29.95 "Hg10 mi
7:00 PM81 °FClear.7 mph74%29.92 "Hg10 mi
6:00 PM84 °FPassing clouds.9 mph66%29.92 "HgN/A
5:00 PM90 °FPassing clouds.3 mph46%29.89 "HgN/A
4:00 PM88 °FScattered clouds.6 mph49%29.89 "HgN/A
3:00 PM88 °FScattered clouds.3 mph52%29.89 "HgN/A
2:00 PM88 °FScattered clouds.6 mph52%29.92 "HgN/A
1:00 PM86 °FScattered clouds.7 mph55%29.95 "HgN/A
12:00 PM86 °FScattered clouds.8 mph55%29.98 "HgN/A
11:00 AM84 °FScattered clouds.7 mph62%29.98 "HgN/A
10:00 AM82 °FPartly sunny.10 mph70%30.01 "HgN/A
9:00 AM82 °FPartly sunny.9 mph74%30.01 "HgN/A
8:00 AM79 °FScattered clouds.6 mph84%30.01 "HgN/A
7:00 AM79 °FSunny.5 mph84%29.98 "Hg10 mi
6:00 AM79 °FPassing clouds.5 mph84%29.95 "HgN/A
5:00 AM79 °FPassing clouds.3 mph84%29.95 "HgN/A
4:00 AM79 °FPassing clouds.5 mph84%29.92 "HgN/A
3:00 AM79 °FPartly cloudy.3 mph84%29.95 "HgN/A
2:00 AM79 °FPartly cloudy.5 mph84%29.95 "HgN/A
Weather by CustomWeather, © 2016

See weather overviewHow to use our weather pages